Stündliche Wetter Jugowiec

Heute, 8 März, Montag

Zeit Temperatur Niederschläge Wind Luftdruck Luftfeuchtigkeit
00:00 -2°C° 0 mm 4 m/S 750 mmHg 84%
01:00 -2°C° 0 mm 5 m/S 750 mmHg 85%
02:00 -2°C° 0.2 mm 4 m/S 750 mmHg 89%
03:00 -2°C° 0.2 mm 4 m/S 750 mmHg 92%
04:00 -1°C° 0.2 mm 3 m/S 750 mmHg 96%
05:00 -1°C° 0.1 mm 3 m/S 750 mmHg 93%
06:00 -1°C° 0.1 mm 3 m/S 751 mmHg 91%
07:00 -2°C° 0.1 mm 3 m/S 751 mmHg 89%
08:00 -1°C° 0 mm 3 m/S 751 mmHg 79%
09:00 +1°C° 0 mm 2 m/S 752 mmHg 70%
10:00 +2°C° 0 mm 2 m/S 752 mmHg 61%
11:00 +2°C° 0 mm 2 m/S 752 mmHg 55%
12:00 +3°C° 0 mm 2 m/S 753 mmHg 48%
13:00 +3°C° 0 mm 2 m/S 753 mmHg 42%
14:00 +2°C° 0 mm 3 m/S 753 mmHg 42%
15:00 +2°C° 0 mm 3 m/S 753 mmHg 42%
16:00 +2°C° 0 mm 3 m/S 753 mmHg 42%
17:00 +2°C° 0 mm 2 m/S 753 mmHg 48%
18:00 +1°C° 0 mm 2 m/S 753 mmHg 55%
19:00 0°C° 0 mm 1 m/S 754 mmHg 61%
20:00 0°C° 0 mm 1 m/S 754 mmHg 62%
21:00 0°C° 0 mm 1 m/S 754 mmHg 63%
22:00 -1°C° 0 mm 0 m/S 754 mmHg 64%
23:00 -1°C° 0 mm 0 m/S 754 mmHg 64%

Morgen, 9 März, Dienstag

Zeit Temperatur Niederschläge Wind Luftdruck Luftfeuchtigkeit
00:00 0°C° 0 mm 1 m/S 754 mmHg 65%
01:00 0°C° 0 mm 1 m/S 754 mmHg 65%
02:00 -1°C° 0 mm 1 m/S 754 mmHg 65%
03:00 -1°C° 0 mm 1 m/S 753 mmHg 65%
04:00 -1°C° 0 mm 1 m/S 753 mmHg 65%
05:00 -1°C° 0 mm 1 m/S 753 mmHg 64%
06:00 0°C° 0 mm 1 m/S 753 mmHg 63%
07:00 0°C° 0 mm 1 m/S 753 mmHg 63%
08:00 +1°C° 0 mm 1 m/S 753 mmHg 58%
09:00 +2°C° 0 mm 1 m/S 753 mmHg 53%
10:00 +3°C° 0 mm 1 m/S 753 mmHg 48%
11:00 +3°C° 0 mm 1 m/S 753 mmHg 44%
12:00 +4°C° 0 mm 1 m/S 753 mmHg 41%
13:00 +4°C° 0 mm 1 m/S 752 mmHg 37%
14:00 +4°C° 0 mm 1 m/S 752 mmHg 38%
15:00 +4°C° 0 mm 1 m/S 752 mmHg 38%
16:00 +4°C° 0 mm 1 m/S 751 mmHg 39%
17:00 +3°C° 0 mm 1 m/S 751 mmHg 43%
18:00 +2°C° 0 mm 1 m/S 752 mmHg 48%
19:00 +1°C° 0 mm 1 m/S 752 mmHg 52%
20:00 -2°C° 0 mm 2 m/S 752 mmHg 54%
21:00 -2°C° 0 mm 2 m/S 752 mmHg 56%
22:00 -2°C° 0 mm 2 m/S 752 mmHg 58%
23:00 -2°C° 0 mm 2 m/S 752 mmHg 58%

übermorgen, 10 März, Mittwoch

Zeit Temperatur Niederschläge Wind Luftdruck Luftfeuchtigkeit
00:00 -3°C° 0 mm 2 m/S 752 mmHg 59%
01:00 -1°C° 0 mm 1 m/S 752 mmHg 60%
02:00 -1°C° 0 mm 1 m/S 751 mmHg 60%
03:00 -1°C° 0 mm 1 m/S 751 mmHg 60%
04:00 -1°C° 0 mm 1 m/S 751 mmHg 61%
05:00 0°C° 0 mm 1 m/S 751 mmHg 60%
06:00 0°C° 0 mm 1 m/S 751 mmHg 60%
07:00 0°C° 0 mm 1 m/S 751 mmHg 60%
08:00 +2°C° 0 mm 1 m/S 751 mmHg 56%
09:00 +3°C° 0 mm 1 m/S 751 mmHg 53%
10:00 +4°C° 0 mm 1 m/S 752 mmHg 49%
11:00 +5°C° 0 mm 1 m/S 752 mmHg 48%
12:00 +6°C° 0 mm 1 m/S 752 mmHg 48%
13:00 +6°C° 0 mm 1 m/S 752 mmHg 47%
14:00 +6°C° 0 mm 1 m/S 751 mmHg 51%
15:00 +6°C° 0 mm 1 m/S 751 mmHg 55%
16:00 +6°C° 0 mm 1 m/S 751 mmHg 59%
17:00 +5°C° 0 mm 1 m/S 751 mmHg 68%
18:00 +4°C° 0 mm 1 m/S 751 mmHg 77%
19:00 +2°C° 0 mm 2 m/S 751 mmHg 86%
20:00 +1°C° 0 mm 2 m/S 751 mmHg 87%
21:00 +1°C° 0 mm 2 m/S 751 mmHg 88%
22:00 0°C° 0 mm 3 m/S 751 mmHg 89%
23:00 0°C° 0 mm 3 m/S 750 mmHg 88%

11 März, Donnerstag

Zeit Temperatur Niederschläge Wind Luftdruck Luftfeuchtigkeit
00:00 0°C° 0 mm 3 m/S 750 mmHg 87%
01:00 +1°C° 0 mm 3 m/S 749 mmHg 86%
02:00 0°C° 0 mm 4 m/S 748 mmHg 85%
03:00 0°C° 0 mm 4 m/S 747 mmHg 84%
04:00 0°C° 0 mm 4 m/S 746 mmHg 82%
05:00 +1°C° 0.1 mm 5 m/S 746 mmHg 83%
06:00 +1°C° 0.1 mm 5 m/S 745 mmHg 83%
07:00 +2°C° 0.1 mm 6 m/S 745 mmHg 83%
08:00 +2°C° 1 mm 6 m/S 744 mmHg 84%
09:00 +3°C° 1 mm 6 m/S 743 mmHg 86%
10:00 +3°C° 1 mm 6 m/S 742 mmHg 87%
11:00 +5°C° 0.3 mm 6 m/S 742 mmHg 83%
12:00 +7°C° 0.3 mm 6 m/S 741 mmHg 79%
13:00 +9°C° 0.3 mm 6 m/S 741 mmHg 74%
14:00 +8°C° 0.5 mm 6 m/S 740 mmHg 77%
15:00 +8°C° 0.5 mm 6 m/S 740 mmHg 80%
16:00 +8°C° 0.5 mm 6 m/S 739 mmHg 83%
17:00 +8°C° 0.1 mm 6 m/S 739 mmHg 82%
18:00 +9°C° 0.1 mm 6 m/S 739 mmHg 81%
19:00 +9°C° 0.1 mm 7 m/S 739 mmHg 81%
20:00 +8°C° 0.3 mm 6 m/S 739 mmHg 79%
21:00 +7°C° 0.3 mm 5 m/S 739 mmHg 78%
22:00 +7°C° 0.3 mm 5 m/S 740 mmHg 76%
23:00 +6°C° 0 mm 5 m/S 740 mmHg 76%

12 März, Freitag

Zeit Temperatur Niederschläge Wind Luftdruck Luftfeuchtigkeit
00:00 +5°C° 0 mm 5 m/S 740 mmHg 77%
01:00 +5°C° 0 mm 5 m/S 740 mmHg 77%
02:00 +4°C° 0 mm 6 m/S 740 mmHg 77%
03:00 +3°C° 0 mm 6 m/S 741 mmHg 77%
04:00 +3°C° 0 mm 6 m/S 741 mmHg 77%
05:00 +3°C° 0 mm 6 m/S 741 mmHg 76%
06:00 +3°C° 0 mm 7 m/S 742 mmHg 74%
07:00 +2°C° 0 mm 8 m/S 742 mmHg 73%
08:00 +2°C° 0 mm 8 m/S 743 mmHg 72%
09:00 +2°C° 0 mm 9 m/S 743 mmHg 70%
10:00 +3°C° 0 mm 9 m/S 744 mmHg 69%
11:00 +5°C° 0 mm 9 m/S 744 mmHg 63%
12:00 +6°C° 0 mm 9 m/S 744 mmHg 58%
13:00 +7°C° 0 mm 9 m/S 745 mmHg 53%
14:00 +7°C° 0 mm 9 m/S 745 mmHg 53%
15:00 +7°C° 0 mm 8 m/S 744 mmHg 52%
16:00 +8°C° 0 mm 7 m/S 744 mmHg 52%
17:00 +5°C° 0 mm 6 m/S 745 mmHg 57%
18:00 +5°C° 0 mm 5 m/S 745 mmHg 63%
19:00 +4°C° 0 mm 4 m/S 745 mmHg 68%
20:00 +3°C° 0 mm 3 m/S 745 mmHg 70%
21:00 +3°C° 0 mm 3 m/S 746 mmHg 72%
22:00 +2°C° 0 mm 3 m/S 746 mmHg 74%
23:00 +2°C° 0 mm 3 m/S 745 mmHg 75%

13 März, Samstag

Zeit Temperatur Niederschläge Wind Luftdruck Luftfeuchtigkeit
00:00 +2°C° 0 mm 3 m/S 745 mmHg 76%
01:00 +1°C° 0 mm 3 m/S 745 mmHg 77%
02:00 +1°C° 0 mm 4 m/S 745 mmHg 77%
03:00 +1°C° 0 mm 4 m/S 745 mmHg 76%
04:00 +1°C° 0 mm 4 m/S 744 mmHg 76%
05:00 +1°C° 0 mm 4 m/S 744 mmHg 77%
06:00 +1°C° 0 mm 4 m/S 744 mmHg 78%
07:00 +1°C° 0 mm 4 m/S 744 mmHg 79%
08:00 +3°C° 0 mm 5 m/S 744 mmHg 71%
09:00 +5°C° 0 mm 6 m/S 743 mmHg 64%
10:00 +8°C° 0 mm 6 m/S 743 mmHg 57%
11:00 +8°C° 0 mm 7 m/S 743 mmHg 57%
12:00 +8°C° 0 mm 7 m/S 743 mmHg 58%
13:00 +9°C° 0 mm 7 m/S 743 mmHg 59%
14:00 +8°C° 0 mm 7 m/S 742 mmHg 60%
15:00 +8°C° 0 mm 6 m/S 742 mmHg 61%
16:00 +8°C° 0 mm 5 m/S 742 mmHg 63%
17:00 +7°C° 0 mm 4 m/S 742 mmHg 69%
18:00 +5°C° 0 mm 3 m/S 742 mmHg 75%
19:00 +5°C° 0 mm 2 m/S 742 mmHg 81%
20:00 +5°C° 0 mm 2 m/S 743 mmHg 80%
21:00 +5°C° 0 mm 2 m/S 743 mmHg 80%
22:00 +4°C° 0 mm 3 m/S 743 mmHg 79%
23:00 +4°C° 0.1 mm 3 m/S 743 mmHg 80%
Mehr zeigen

Wir brauchen deine Erlaubnis

Meteoprog und unser Service Anbieter werden persönliche Daten aufbewahren, so wie Cookies, Geräte Bezeichnung oder ähnliche Technologien von deinem Gerät und Prozess, so wie Persönliche Daten Inhalte und Werbungen, genauso wie social Media und den Verkehr zu analysieren.

  • Aufbewahrung und/oder Zugang zu deiner Geräte Informationen.

    Cookies, Geräte Bezeichnung oder andere Informationen, können aufbewahrt oder Zugang zu deinem Gerät erhalten, für den Grund, der oben angegeben wird.

  • Personalisierte Werbung und Inhalte, Messungen, Einblick in das Publikum und Produkt Entwicklung.

    Werbungen und Inhalte können personalisiert werden, basierend auf ein Profil. Mehr Daten können besser personalisierte Werbungen und Inhalte hinzufügen. Werbung und Inhalte können gezeigt und gemessen werden. Einblicke über das Publikum, welche die Werbung gesehen haben und den Inhalt, können abgeleitet werden. So wie Daten können genutzt werden, um es zu verbessern oder die Benutzer Erfahrung zu verbessern das System und die Software.

Wenn du “Ich stimme zu” klickst, erlaubst du uns, die Cookies zu benutzen die Geräte Bezeichnung, den Web oder ähnliche Technologien zu benutzen. Deine Settings, können in deinem Gerät bei deinem Browser geändert werden.

Für den bestimmten Zweck, berechtigten Interessen beruhen darauf, mehr als auf den Inhalt. Du kannst mehr darüber in unseren Privaten und Cookie Politik lesen.